HAWK-6C

Last updated on Sun Sep 20 2026 00:03:35 GMT+0000 (Coordinated Universal Time)

1 55326U 23011C 26262.06521013 .00004367 00000+0 18632-3 0 9996 2 55326 40.4953 161.0342 0004161 305.1291 54.9128 15.23653122202179
UTC large
Height (km)
Speed (km/s)
/
Latitude / Longitude
Inclination (degrees)
Orbital Period (minutes)
Azimuth
Elevation
Range (km)
Doppler Factor

Next 0 passes for location: London (51.5072 / 0.1276)

No passes found over London.
HAWK-6C